owner,sensor,date,latitude,longitude,vertical_datum,sea_water_practical_salinity,qcFlag 
TCOON,ioos:station:TCOON:148:1,2014-02-01T00:00:00Z,27.9799,-97.0288,0.0,30.8,1111122 
TCOON,ioos:station:TCOON:148:1,2014-02-01T01:00:00Z,27.9799,-97.0288,0.0,30.5,1111122 
TCOON,ioos:station:TCOON:148:1,2014-02-01T02:00:00Z,27.9799,-97.0288,0.0,30.6,1111122 
TCOON,ioos:station:TCOON:148:1,2014-02-01T03:00:00Z,27.9799,-97.0288,0.0,30.5,1111122 
TCOON,ioos:station:TCOON:148:1,2014-02-01T04:00:00Z,27.9799,-97.0288,0.0,30.7,1111122 
TCOON,ioos:station:TCOON:148:1,2014-02-01T05:00:00Z,27.9799,-97.0288,0.0,30.8,1111122 
TCOON,ioos:station:TCOON:148:1,2014-02-01T06:00:00Z,27.9799,-97.0288,0.0,30.6,1111122 
TCOON,ioos:station:TCOON:148:1,2014-02-01T07:00:00Z,27.9799,-97.0288,0.0,30.6,1111122 
TCOON,ioos:station:TCOON:148:1,2014-02-01T08:00:00Z,27.9799,-97.0288,0.0,30.7,1111122 
TCOON,ioos:station:TCOON:148:1,2014-02-01T09:00:00Z,27.9799,-97.0288,0.0,31.0,1111122 
TCOON,ioos:station:TCOON:148:1,2014-02-01T10:00:00Z,27.9799,-97.0288,0.0,31.0,1111122 
TCOON,ioos:station:TCOON:148:1,2014-02-01T11:00:00Z,27.9799,-97.0288,0.0,31.0,1111122 
TCOON,ioos:station:TCOON:148:1,2014-02-01T12:00:00Z,27.9799,-97.0288,0.0,31.1,1111122 
TCOON,ioos:station:TCOON:148:1,2014-02-01T13:00:00Z,27.9799,-97.0288,0.0,31.3,1111122 
TCOON,ioos:station:TCOON:148:1,2014-02-01T14:00:00Z,27.9799,-97.0288,0.0,31.3,1111122 
TCOON,ioos:station:TCOON:148:1,2014-02-01T15:00:00Z,27.9799,-97.0288,0.0,31.3,1111122 
TCOON,ioos:station:TCOON:148:1,2014-02-01T15:30:00Z,27.9799,-97.0288,0.0,31.2,1111122 
TCOON,ioos:station:TCOON:148:1,2014-02-01T17:00:00Z,27.9799,-97.0288,0.0,31.0,1111122 
TCOON,ioos:station:TCOON:148:1,2014-02-01T17:30:00Z,27.9799,-97.0288,0.0,30.8,1111122 
TCOON,ioos:station:TCOON:148:1,2014-02-01T18:00:00Z,27.9799,-97.0288,0.0,30.9,1111122 
TCOON,ioos:station:TCOON:148:1,2014-02-01T19:00:00Z,27.9799,-97.0288,0.0,30.9,1111122 
TCOON,ioos:station:TCOON:148:1,2014-02-01T20:00:00Z,27.9799,-97.0288,0.0,30.7,1111122 
TCOON,ioos:station:TCOON:148:1,2014-02-01T21:00:00Z,27.9799,-97.0288,0.0,30.7,1111122 
TCOON,ioos:station:TCOON:148:1,2014-02-01T22:00:00Z,27.9799,-97.0288,0.0,30.7,1111122 
TCOON,ioos:station:TCOON:148:1,2014-02-01T23:00:00Z,27.9799,-97.0288,0.0,30.7,1111122 
TCOON,ioos:station:TCOON:148:1,2014-02-02T00:00:00Z,27.9799,-97.0288,0.0,30.7,1111122 
TCOON,ioos:station:TCOON:148:1,2014-02-02T01:00:00Z,27.9799,-97.0288,0.0,30.7,1111122 
TCOON,ioos:station:TCOON:148:1,2014-02-02T02:00:00Z,27.9799,-97.0288,0.0,30.8,1111122 
TCOON,ioos:station:TCOON:148:1,2014-02-02T03:00:00Z,27.9799,-97.0288,0.0,30.8,1111122 
TCOON,ioos:station:TCOON:148:1,2014-02-02T04:00:00Z,27.9799,-97.0288,0.0,30.8,1111122 
TCOON,ioos:station:TCOON:148:1,2014-02-02T05:00:00Z,27.9799,-97.0288,0.0,30.8,1111122 
TCOON,ioos:station:TCOON:148:1,2014-02-02T06:00:00Z,27.9799,-97.0288,0.0,30.8,1111122 
TCOON,ioos:station:TCOON:148:1,2014-02-02T07:00:00Z,27.9799,-97.0288,0.0,30.8,1111122 
TCOON,ioos:station:TCOON:148:1,2014-02-02T08:00:00Z,27.9799,-97.0288,0.0,30.8,1111122 
TCOON,ioos:station:TCOON:148:1,2014-02-02T09:00:00Z,27.9799,-97.0288,0.0,30.8,1111122 
TCOON,ioos:station:TCOON:148:1,2014-02-02T10:00:00Z,27.9799,-97.0288,0.0,30.9,1111122 
TCOON,ioos:station:TCOON:148:1,2014-02-02T11:00:00Z,27.9799,-97.0288,0.0,30.9,1111122 
TCOON,ioos:station:TCOON:148:1,2014-02-02T12:00:00Z,27.9799,-97.0288,0.0,31.0,1111122 
TCOON,ioos:station:TCOON:148:1,2014-02-02T13:00:00Z,27.9799,-97.0288,0.0,31.0,1111122 
TCOON,ioos:station:TCOON:148:1,2014-02-02T14:00:00Z,27.9799,-97.0288,0.0,31.0,1111122 
TCOON,ioos:station:TCOON:148:1,2014-02-02T15:00:00Z,27.9799,-97.0288,0.0,31.0,1111122 
TCOON,ioos:station:TCOON:148:1,2014-02-02T16:00:00Z,27.9799,-97.0288,0.0,30.9,1111122 
TCOON,ioos:station:TCOON:148:1,2014-02-02T18:00:00Z,27.9799,-97.0288,0.0,30.9,1111122 
TCOON,ioos:station:TCOON:148:1,2014-02-02T19:00:00Z,27.9799,-97.0288,0.0,30.8,1111122 
TCOON,ioos:station:TCOON:148:1,2014-02-02T20:00:00Z,27.9799,-97.0288,0.0,30.7,1111122 
TCOON,ioos:station:TCOON:148:1,2014-02-02T21:00:00Z,27.9799,-97.0288,0.0,30.6,1111122 
TCOON,ioos:station:TCOON:148:1,2014-02-02T21:30:00Z,27.9799,-97.0288,0.0,30.6,1111122 
TCOON,ioos:station:TCOON:148:1,2014-02-02T22:00:00Z,27.9799,-97.0288,0.0,30.5,1111122 
TCOON,ioos:station:TCOON:148:1,2014-02-02T23:00:00Z,27.9799,-97.0288,0.0,30.4,1111122 
TCOON,ioos:station:TCOON:148:1,2014-02-03T00:00:00Z,27.9799,-97.0288,0.0,30.3,1111122 
TCOON,ioos:station:TCOON:148:1,2014-02-03T01:00:00Z,27.9799,-97.0288,0.0,30.3,1111122 
TCOON,ioos:station:TCOON:148:1,2014-02-03T02:00:00Z,27.9799,-97.0288,0.0,30.3,1111122 
TCOON,ioos:station:TCOON:148:1,2014-02-03T03:00:00Z,27.9799,-97.0288,0.0,30.2,1111122 
TCOON,ioos:station:TCOON:148:1,2014-02-03T05:00:00Z,27.9799,-97.0288,0.0,30.0,1111122 
TCOON,ioos:station:TCOON:148:1,2014-02-03T07:00:00Z,27.9799,-97.0288,0.0,29.6,1111122 
TCOON,ioos:station:TCOON:148:1,2014-02-03T08:00:00Z,27.9799,-97.0288,0.0,29.6,1111122 
TCOON,ioos:station:TCOON:148:1,2014-02-03T09:00:00Z,27.9799,-97.0288,0.0,29.7,1111122 
TCOON,ioos:station:TCOON:148:1,2014-02-03T10:00:00Z,27.9799,-97.0288,0.0,29.7,1111122 
TCOON,ioos:station:TCOON:148:1,2014-02-03T11:00:00Z,27.9799,-97.0288,0.0,29.9,1111122 
TCOON,ioos:station:TCOON:148:1,2014-02-03T12:00:00Z,27.9799,-97.0288,0.0,29.8,1111122 
TCOON,ioos:station:TCOON:148:1,2014-02-03T12:30:00Z,27.9799,-97.0288,0.0,29.7,1111122 
TCOON,ioos:station:TCOON:148:1,2014-02-03T14:00:00Z,27.9799,-97.0288,0.0,29.7,1111122 
TCOON,ioos:station:TCOON:148:1,2014-02-03T15:00:00Z,27.9799,-97.0288,0.0,29.7,1111122 
TCOON,ioos:station:TCOON:148:1,2014-02-03T16:00:00Z,27.9799,-97.0288,0.0,29.6,1111122 
TCOON,ioos:station:TCOON:148:1,2014-02-03T18:00:00Z,27.9799,-97.0288,0.0,29.7,1111122 
TCOON,ioos:station:TCOON:148:1,2014-02-03T19:00:00Z,27.9799,-97.0288,0.0,29.7,1111122 
TCOON,ioos:station:TCOON:148:1,2014-02-03T20:00:00Z,27.9799,-97.0288,0.0,29.7,1111122 
TCOON,ioos:station:TCOON:148:1,2014-02-03T21:00:00Z,27.9799,-97.0288,0.0,29.8,1111122 
TCOON,ioos:station:TCOON:148:1,2014-02-03T22:00:00Z,27.9799,-97.0288,0.0,29.9,1111122 
TCOON,ioos:station:TCOON:148:1,2014-02-04T02:00:00Z,27.9799,-97.0288,0.0,29.8,1111122 
TCOON,ioos:station:TCOON:148:1,2014-02-04T03:00:00Z,27.9799,-97.0288,0.0,29.8,1111122 
TCOON,ioos:station:TCOON:148:1,2014-02-04T04:00:00Z,27.9799,-97.0288,0.0,29.8,1111122 
TCOON,ioos:station:TCOON:148:1,2014-02-04T05:30:00Z,27.9799,-97.0288,0.0,29.8,1111122 
TCOON,ioos:station:TCOON:148:1,2014-02-04T06:00:00Z,27.9799,-97.0288,0.0,29.8,1111122 
TCOON,ioos:station:TCOON:148:1,2014-02-04T06:30:00Z,27.9799,-97.0288,0.0,29.8,1111122 
TCOON,ioos:station:TCOON:148:1,2014-02-04T07:00:00Z,27.9799,-97.0288,0.0,29.8,1111122 
TCOON,ioos:station:TCOON:148:1,2014-02-14T14:30:00Z,27.9799,-97.0288,0.0,29.1,1111122 
TCOON,ioos:station:TCOON:148:1,2014-02-14T15:00:00Z,27.9799,-97.0288,0.0,29.1,1111122 
TCOON,ioos:station:TCOON:148:1,2014-02-14T15:30:00Z,27.9799,-97.0288,0.0,29.1,1111122 
TCOON,ioos:station:TCOON:148:1,2014-02-14T16:00:00Z,27.9799,-97.0288,0.0,29.1,1111122 
TCOON,ioos:station:TCOON:148:1,2014-02-14T16:30:00Z,27.9799,-97.0288,0.0,29.1,1111122 
TCOON,ioos:station:TCOON:148:1,2014-02-14T17:00:00Z,27.9799,-97.0288,0.0,29.1,1111122 
TCOON,ioos:station:TCOON:148:1,2014-02-14T17:30:00Z,27.9799,-97.0288,0.0,29.1,1111122 
TCOON,ioos:station:TCOON:148:1,2014-02-14T18:00:00Z,27.9799,-97.0288,0.0,29.1,1111122 
TCOON,ioos:station:TCOON:148:1,2014-02-14T18:30:00Z,27.9799,-97.0288,0.0,29.0,1111122 
TCOON,ioos:station:TCOON:148:1,2014-02-14T19:00:00Z,27.9799,-97.0288,0.0,29.0,1111122 
TCOON,ioos:station:TCOON:148:1,2014-02-14T19:30:00Z,27.9799,-97.0288,0.0,18.6,1111122 
TCOON,ioos:station:TCOON:148:1,2014-02-14T20:00:00Z,27.9799,-97.0288,0.0,16.8,1111122 
TCOON,ioos:station:TCOON:148:1,2014-02-14T20:30:00Z,27.9799,-97.0288,0.0,18.0,1111122 
TCOON,ioos:station:TCOON:148:1,2014-02-14T21:00:00Z,27.9799,-97.0288,0.0,29.0,1111122 
TCOON,ioos:station:TCOON:148:1,2014-02-14T21:30:00Z,27.9799,-97.0288,0.0,29.0,1111122 
TCOON,ioos:station:TCOON:148:1,2014-02-14T22:00:00Z,27.9799,-97.0288,0.0,29.0,1111122 
TCOON,ioos:station:TCOON:148:1,2014-02-14T22:30:00Z,27.9799,-97.0288,0.0,29.0,1111122 
TCOON,ioos:station:TCOON:148:1,2014-02-14T23:00:00Z,27.9799,-97.0288,0.0,29.0,1111122 
TCOON,ioos:station:TCOON:148:1,2014-02-15T00:00:00Z,27.9799,-97.0288,0.0,29.0,1111122 
TCOON,ioos:station:TCOON:148:1,2014-02-15T00:30:00Z,27.9799,-97.0288,0.0,29.0,1111122 
TCOON,ioos:station:TCOON:148:1,2014-02-15T01:00:00Z,27.9799,-97.0288,0.0,29.1,1111122 
TCOON,ioos:station:TCOON:148:1,2014-02-15T01:30:00Z,27.9799,-97.0288,0.0,29.1,1111122 
TCOON,ioos:station:TCOON:148:1,2014-02-15T02:00:00Z,27.9799,-97.0288,0.0,29.1,1111122 
TCOON,ioos:station:TCOON:148:1,2014-02-15T02:30:00Z,27.9799,-97.0288,0.0,29.1,1111122 
TCOON,ioos:station:TCOON:148:1,2014-02-15T03:00:00Z,27.9799,-97.0288,0.0,29.1,1111122 
TCOON,ioos:station:TCOON:148:1,2014-02-15T03:30:00Z,27.9799,-97.0288,0.0,29.1,1111122 
TCOON,ioos:station:TCOON:148:1,2014-02-15T04:00:00Z,27.9799,-97.0288,0.0,29.1,1111122 
TCOON,ioos:station:TCOON:148:1,2014-02-15T04:30:00Z,27.9799,-97.0288,0.0,29.1,1111122 
TCOON,ioos:station:TCOON:148:1,2014-02-15T05:00:00Z,27.9799,-97.0288,0.0,29.2,1111122 
TCOON,ioos:station:TCOON:148:1,2014-02-15T05:30:00Z,27.9799,-97.0288,0.0,29.4,1111122 
TCOON,ioos:station:TCOON:148:1,2014-02-15T06:00:00Z,27.9799,-97.0288,0.0,29.4,1111122 
TCOON,ioos:station:TCOON:148:1,2014-02-15T06:30:00Z,27.9799,-97.0288,0.0,29.4,1111122 
TCOON,ioos:station:TCOON:148:1,2014-02-15T07:00:00Z,27.9799,-97.0288,0.0,29.3,1111122 
TCOON,ioos:station:TCOON:148:1,2014-02-15T07:30:00Z,27.9799,-97.0288,0.0,29.2,1111122 
TCOON,ioos:station:TCOON:148:1,2014-02-15T08:00:00Z,27.9799,-97.0288,0.0,29.1,1111122 
TCOON,ioos:station:TCOON:148:1,2014-02-15T08:30:00Z,27.9799,-97.0288,0.0,29.1,1111122 
TCOON,ioos:station:TCOON:148:1,2014-02-15T09:00:00Z,27.9799,-97.0288,0.0,29.1,1111122 
TCOON,ioos:station:TCOON:148:1,2014-02-15T09:30:00Z,27.9799,-97.0288,0.0,29.1,1111122 
TCOON,ioos:station:TCOON:148:1,2014-02-15T14:00:00Z,27.9799,-97.0288,0.0,29.2,1111122 
TCOON,ioos:station:TCOON:148:1,2014-02-15T14:30:00Z,27.9799,-97.0288,0.0,29.2,1111122 
TCOON,ioos:station:TCOON:148:1,2014-02-15T15:00:00Z,27.9799,-97.0288,0.0,29.3,1111122 
TCOON,ioos:station:TCOON:148:1,2014-02-15T15:30:00Z,27.9799,-97.0288,0.0,29.3,1111122 
TCOON,ioos:station:TCOON:148:1,2014-02-15T16:00:00Z,27.9799,-97.0288,0.0,29.3,1111122 
TCOON,ioos:station:TCOON:148:1,2014-02-15T16:30:00Z,27.9799,-97.0288,0.0,29.1,1111122 
TCOON,ioos:station:TCOON:148:1,2014-02-15T17:00:00Z,27.9799,-97.0288,0.0,29.1,1111122 
TCOON,ioos:station:TCOON:148:1,2014-02-15T17:30:00Z,27.9799,-97.0288,0.0,29.1,1111122 
TCOON,ioos:station:TCOON:148:1,2014-02-15T18:00:00Z,27.9799,-97.0288,0.0,29.1,1111122 
TCOON,ioos:station:TCOON:148:1,2014-02-15T19:30:00Z,27.9799,-97.0288,0.0,29.0,1111122 
TCOON,ioos:station:TCOON:148:1,2014-02-15T20:00:00Z,27.9799,-97.0288,0.0,28.9,1111122 
TCOON,ioos:station:TCOON:148:1,2014-02-15T21:00:00Z,27.9799,-97.0288,0.0,29.0,1111122 
TCOON,ioos:station:TCOON:148:1,2014-02-15T22:00:00Z,27.9799,-97.0288,0.0,29.0,1111122 
TCOON,ioos:station:TCOON:148:1,2014-02-15T22:30:00Z,27.9799,-97.0288,0.0,29.0,1111122 
TCOON,ioos:station:TCOON:148:1,2014-02-15T23:00:00Z,27.9799,-97.0288,0.0,29.0,1111122 
TCOON,ioos:station:TCOON:148:1,2014-02-15T23:30:00Z,27.9799,-97.0288,0.0,29.1,1111122 
TCOON,ioos:station:TCOON:148:1,2014-02-16T00:00:00Z,27.9799,-97.0288,0.0,29.1,1111122 
TCOON,ioos:station:TCOON:148:1,2014-02-16T00:30:00Z,27.9799,-97.0288,0.0,28.9,1111122 
TCOON,ioos:station:TCOON:148:1,2014-02-16T01:00:00Z,27.9799,-97.0288,0.0,16.5,1111122 
TCOON,ioos:station:TCOON:148:1,2014-02-16T01:30:00Z,27.9799,-97.0288,0.0,16.5,1111122 
TCOON,ioos:station:TCOON:148:1,2014-02-16T02:00:00Z,27.9799,-97.0288,0.0,17.0,1111122 
TCOON,ioos:station:TCOON:148:1,2014-02-16T02:30:00Z,27.9799,-97.0288,0.0,16.2,1111122 
TCOON,ioos:station:TCOON:148:1,2014-02-16T03:00:00Z,27.9799,-97.0288,0.0,16.7,1111122 
TCOON,ioos:station:TCOON:148:1,2014-02-16T03:30:00Z,27.9799,-97.0288,0.0,16.9,1111122 
TCOON,ioos:station:TCOON:148:1,2014-02-16T04:00:00Z,27.9799,-97.0288,0.0,17.1,1111122 
TCOON,ioos:station:TCOON:148:1,2014-02-16T04:30:00Z,27.9799,-97.0288,0.0,19.8,1111122 
TCOON,ioos:station:TCOON:148:1,2014-02-16T05:00:00Z,27.9799,-97.0288,0.0,18.0,1111122 
TCOON,ioos:station:TCOON:148:1,2014-02-16T06:00:00Z,27.9799,-97.0288,0.0,16.3,1111122 
TCOON,ioos:station:TCOON:148:1,2014-02-16T06:30:00Z,27.9799,-97.0288,0.0,18.7,1111122 
TCOON,ioos:station:TCOON:148:1,2014-02-16T07:00:00Z,27.9799,-97.0288,0.0,18.4,1111122 
TCOON,ioos:station:TCOON:148:1,2014-02-16T07:30:00Z,27.9799,-97.0288,0.0,18.7,1111122 
TCOON,ioos:station:TCOON:148:1,2014-02-16T08:00:00Z,27.9799,-97.0288,0.0,18.4,1111122 
TCOON,ioos:station:TCOON:148:1,2014-02-16T08:30:00Z,27.9799,-97.0288,0.0,18.7,1111122 
TCOON,ioos:station:TCOON:148:1,2014-02-16T09:00:00Z,27.9799,-97.0288,0.0,18.1,1111122 
TCOON,ioos:station:TCOON:148:1,2014-02-16T09:30:00Z,27.9799,-97.0288,0.0,18.6,1111122 
TCOON,ioos:station:TCOON:148:1,2014-02-16T10:00:00Z,27.9799,-97.0288,0.0,19.4,1111122 
TCOON,ioos:station:TCOON:148:1,2014-02-16T11:30:00Z,27.9799,-97.0288,0.0,16.8,1111122 
TCOON,ioos:station:TCOON:148:1,2014-02-16T12:00:00Z,27.9799,-97.0288,0.0,18.3,1111122 
TCOON,ioos:station:TCOON:148:1,2014-02-16T12:30:00Z,27.9799,-97.0288,0.0,18.9,1111122 
TCOON,ioos:station:TCOON:148:1,2014-02-16T13:00:00Z,27.9799,-97.0288,0.0,18.4,1111122 
TCOON,ioos:station:TCOON:148:1,2014-02-16T13:30:00Z,27.9799,-97.0288,0.0,18.7,1111122 
TCOON,ioos:station:TCOON:148:1,2014-02-16T14:00:00Z,27.9799,-97.0288,0.0,18.9,1111122 
TCOON,ioos:station:TCOON:148:1,2014-02-16T14:30:00Z,27.9799,-97.0288,0.0,29.6,1111122 
TCOON,ioos:station:TCOON:148:1,2014-02-16T15:00:00Z,27.9799,-97.0288,0.0,19.1,1111122 
TCOON,ioos:station:TCOON:148:1,2014-02-16T15:30:00Z,27.9799,-97.0288,0.0,29.4,1111122 
TCOON,ioos:station:TCOON:148:1,2014-02-16T16:00:00Z,27.9799,-97.0288,0.0,29.5,1111122 
TCOON,ioos:station:TCOON:148:1,2014-02-16T16:30:00Z,27.9799,-97.0288,0.0,29.4,1111122 
TCOON,ioos:station:TCOON:148:1,2014-02-16T17:00:00Z,27.9799,-97.0288,0.0,19.3,1111122 
TCOON,ioos:station:TCOON:148:1,2014-02-16T17:30:00Z,27.9799,-97.0288,0.0,17.8,1111122 
TCOON,ioos:station:TCOON:148:1,2014-02-16T18:00:00Z,27.9799,-97.0288,0.0,17.3,1111122 
TCOON,ioos:station:TCOON:148:1,2014-02-16T18:30:00Z,27.9799,-97.0288,0.0,17.4,1111122 
TCOON,ioos:station:TCOON:148:1,2014-02-16T19:00:00Z,27.9799,-97.0288,0.0,17.9,1111122 
TCOON,ioos:station:TCOON:148:1,2014-02-16T19:30:00Z,27.9799,-97.0288,0.0,17.9,1111122 
TCOON,ioos:station:TCOON:148:1,2014-02-16T20:00:00Z,27.9799,-97.0288,0.0,17.9,1111122 
TCOON,ioos:station:TCOON:148:1,2014-02-16T20:30:00Z,27.9799,-97.0288,0.0,17.7,1111122 
TCOON,ioos:station:TCOON:148:1,2014-02-16T21:00:00Z,27.9799,-97.0288,0.0,17.7,1111122 
TCOON,ioos:station:TCOON:148:1,2014-02-16T21:30:00Z,27.9799,-97.0288,0.0,17.6,1111122 
TCOON,ioos:station:TCOON:148:1,2014-02-16T22:00:00Z,27.9799,-97.0288,0.0,17.3,1111122 
TCOON,ioos:station:TCOON:148:1,2014-02-16T22:30:00Z,27.9799,-97.0288,0.0,17.1,1111122 
TCOON,ioos:station:TCOON:148:1,2014-02-17T00:00:00Z,27.9799,-97.0288,0.0,17.8,1111122 
TCOON,ioos:station:TCOON:148:1,2014-02-17T01:00:00Z,27.9799,-97.0288,0.0,17.5,1111122 
TCOON,ioos:station:TCOON:148:1,2014-02-17T02:00:00Z,27.9799,-97.0288,0.0,17.5,1111122 
TCOON,ioos:station:TCOON:148:1,2014-02-17T03:00:00Z,27.9799,-97.0288,0.0,17.6,1111122 
TCOON,ioos:station:TCOON:148:1,2014-02-17T04:00:00Z,27.9799,-97.0288,0.0,18.1,1111122 
TCOON,ioos:station:TCOON:148:1,2014-02-17T05:00:00Z,27.9799,-97.0288,0.0,17.7,1111122 
TCOON,ioos:station:TCOON:148:1,2014-02-17T06:00:00Z,27.9799,-97.0288,0.0,17.3,1111122 
TCOON,ioos:station:TCOON:148:1,2014-02-17T07:00:00Z,27.9799,-97.0288,0.0,17.5,1111122 
TCOON,ioos:station:TCOON:148:1,2014-02-17T08:00:00Z,27.9799,-97.0288,0.0,17.2,1111122 
TCOON,ioos:station:TCOON:148:1,2014-02-17T09:00:00Z,27.9799,-97.0288,0.0,17.4,1111122 
TCOON,ioos:station:TCOON:148:1,2014-02-17T10:00:00Z,27.9799,-97.0288,0.0,17.3,1111122 
TCOON,ioos:station:TCOON:148:1,2014-02-17T10:30:00Z,27.9799,-97.0288,0.0,17.1,1111122 
TCOON,ioos:station:TCOON:148:1,2014-02-17T12:00:00Z,27.9799,-97.0288,0.0,17.5,1111122 
TCOON,ioos:station:TCOON:148:1,2014-02-17T13:00:00Z,27.9799,-97.0288,0.0,16.2,1111122 
TCOON,ioos:station:TCOON:148:1,2014-02-17T14:00:00Z,27.9799,-97.0288,0.0,16.3,1111122 
TCOON,ioos:station:TCOON:148:1,2014-02-17T14:30:00Z,27.9799,-97.0288,0.0,16.3,1111122 
TCOON,ioos:station:TCOON:148:1,2014-02-17T16:00:00Z,27.9799,-97.0288,0.0,16.5,1111122 
TCOON,ioos:station:TCOON:148:1,2014-02-17T17:00:00Z,27.9799,-97.0288,0.0,16.3,1111122 
TCOON,ioos:station:TCOON:148:1,2014-02-17T18:00:00Z,27.9799,-97.0288,0.0,17.4,1111122 
TCOON,ioos:station:TCOON:148:1,2014-02-17T19:00:00Z,27.9799,-97.0288,0.0,16.8,1111122 
TCOON,ioos:station:TCOON:148:1,2014-02-17T20:00:00Z,27.9799,-97.0288,0.0,16.7,1111122 
TCOON,ioos:station:TCOON:148:1,2014-02-17T21:00:00Z,27.9799,-97.0288,0.0,16.3,1111122 
TCOON,ioos:station:TCOON:148:1,2014-02-17T22:00:00Z,27.9799,-97.0288,0.0,16.3,1111122 
TCOON,ioos:station:TCOON:148:1,2014-02-17T23:00:00Z,27.9799,-97.0288,0.0,16.5,1111122 
TCOON,ioos:station:TCOON:148:1,2014-02-17T23:30:00Z,27.9799,-97.0288,0.0,16.4,1111122 
TCOON,ioos:station:TCOON:148:1,2014-02-18T01:00:00Z,27.9799,-97.0288,0.0,15.9,1111122 
TCOON,ioos:station:TCOON:148:1,2014-02-18T21:00:00Z,27.9799,-97.0288,0.0,18.1,1111122 
TCOON,ioos:station:TCOON:148:1,2014-02-19T15:00:00Z,27.9799,-97.0288,0.0,18.0,1111122 
TCOON,ioos:station:TCOON:148:1,2014-02-19T16:00:00Z,27.9799,-97.0288,0.0,18.0,1111122 
TCOON,ioos:station:TCOON:148:1,2014-02-19T17:00:00Z,27.9799,-97.0288,0.0,18.1,1111122 
TCOON,ioos:station:TCOON:148:1,2014-02-19T18:00:00Z,27.9799,-97.0288,0.0,18.1,1111122 
TCOON,ioos:station:TCOON:148:1,2014-02-19T18:30:00Z,27.9799,-97.0288,0.0,18.1,1111122 
TCOON,ioos:station:TCOON:148:1,2014-02-19T19:00:00Z,27.9799,-97.0288,0.0,18.2,1111122 
TCOON,ioos:station:TCOON:148:1,2014-02-19T20:00:00Z,27.9799,-97.0288,0.0,18.3,1111122 
TCOON,ioos:station:TCOON:148:1,2014-02-19T21:00:00Z,27.9799,-97.0288,0.0,18.4,1111122 
TCOON,ioos:station:TCOON:148:1,2014-02-19T22:00:00Z,27.9799,-97.0288,0.0,18.5,1111122 
TCOON,ioos:station:TCOON:148:1,2014-02-19T23:00:00Z,27.9799,-97.0288,0.0,18.6,1111122 
TCOON,ioos:station:TCOON:148:1,2014-02-20T00:00:00Z,27.9799,-97.0288,0.0,18.6,1111122 
TCOON,ioos:station:TCOON:148:1,2014-02-20T01:00:00Z,27.9799,-97.0288,0.0,19.4,1111122 
TCOON,ioos:station:TCOON:148:1,2014-02-20T02:00:00Z,27.9799,-97.0288,0.0,19.4,1111122 
TCOON,ioos:station:TCOON:148:1,2014-02-20T03:00:00Z,27.9799,-97.0288,0.0,19.5,1111122 
TCOON,ioos:station:TCOON:148:1,2014-02-20T04:00:00Z,27.9799,-97.0288,0.0,19.5,1111122 
TCOON,ioos:station:TCOON:148:1,2014-02-20T05:00:00Z,27.9799,-97.0288,0.0,19.5,1111122 
TCOON,ioos:station:TCOON:148:1,2014-02-20T06:00:00Z,27.9799,-97.0288,0.0,19.5,1111122 
TCOON,ioos:station:TCOON:148:1,2014-02-20T07:00:00Z,27.9799,-97.0288,0.0,19.5,1111122 
TCOON,ioos:station:TCOON:148:1,2014-02-20T08:00:00Z,27.9799,-97.0288,0.0,19.5,1111122 
TCOON,ioos:station:TCOON:148:1,2014-02-20T09:00:00Z,27.9799,-97.0288,0.0,19.6,1111122 
TCOON,ioos:station:TCOON:148:1,2014-02-20T10:00:00Z,27.9799,-97.0288,0.0,19.6,1111122 
TCOON,ioos:station:TCOON:148:1,2014-02-20T11:00:00Z,27.9799,-97.0288,0.0,19.6,1111122 
TCOON,ioos:station:TCOON:148:1,2014-02-20T12:00:00Z,27.9799,-97.0288,0.0,19.5,1111122 
TCOON,ioos:station:TCOON:148:1,2014-02-20T13:00:00Z,27.9799,-97.0288,0.0,19.5,1111122 
TCOON,ioos:station:TCOON:148:1,2014-02-20T14:00:00Z,27.9799,-97.0288,0.0,19.6,1111122 
TCOON,ioos:station:TCOON:148:1,2014-02-20T15:00:00Z,27.9799,-97.0288,0.0,19.6,1111122 
TCOON,ioos:station:TCOON:148:1,2014-02-20T16:00:00Z,27.9799,-97.0288,0.0,29.8,1111122 
TCOON,ioos:station:TCOON:148:1,2014-02-20T17:00:00Z,27.9799,-97.0288,0.0,29.9,1111122 
TCOON,ioos:station:TCOON:148:1,2014-02-20T18:00:00Z,27.9799,-97.0288,0.0,30.0,1111122 
TCOON,ioos:station:TCOON:148:1,2014-02-20T19:00:00Z,27.9799,-97.0288,0.0,30.5,1111122 
TCOON,ioos:station:TCOON:148:1,2014-02-20T20:00:00Z,27.9799,-97.0288,0.0,30.7,1111122 
TCOON,ioos:station:TCOON:148:1,2014-02-20T21:00:00Z,27.9799,-97.0288,0.0,30.2,1111122 
TCOON,ioos:station:TCOON:148:1,2014-02-20T23:00:00Z,27.9799,-97.0288,0.0,30.2,1111122 
TCOON,ioos:station:TCOON:148:1,2014-02-21T05:00:00Z,27.9799,-97.0288,0.0,30.3,1111122 
TCOON,ioos:station:TCOON:148:1,2014-02-21T07:00:00Z,27.9799,-97.0288,0.0,30.1,1111122 
TCOON,ioos:station:TCOON:148:1,2014-02-21T08:00:00Z,27.9799,-97.0288,0.0,30.3,1111122 
TCOON,ioos:station:TCOON:148:1,2014-02-21T10:00:00Z,27.9799,-97.0288,0.0,30.2,1111122 
TCOON,ioos:station:TCOON:148:1,2014-02-21T11:00:00Z,27.9799,-97.0288,0.0,30.2,1111122 
TCOON,ioos:station:TCOON:148:1,2014-02-21T12:00:00Z,27.9799,-97.0288,0.0,30.1,1111122 
TCOON,ioos:station:TCOON:148:1,2014-02-21T13:00:00Z,27.9799,-97.0288,0.0,30.0,1111122 
TCOON,ioos:station:TCOON:148:1,2014-02-21T14:00:00Z,27.9799,-97.0288,0.0,30.0,1111122 
TCOON,ioos:station:TCOON:148:1,2014-02-21T15:00:00Z,27.9799,-97.0288,0.0,30.0,1111122 
TCOON,ioos:station:TCOON:148:1,2014-02-21T16:00:00Z,27.9799,-97.0288,0.0,30.0,1111122 
TCOON,ioos:station:TCOON:148:1,2014-02-21T17:00:00Z,27.9799,-97.0288,0.0,30.1,1111122 
TCOON,ioos:station:TCOON:148:1,2014-02-21T19:00:00Z,27.9799,-97.0288,0.0,30.2,1111122 
TCOON,ioos:station:TCOON:148:1,2014-02-21T20:00:00Z,27.9799,-97.0288,0.0,30.2,1111122 
TCOON,ioos:station:TCOON:148:1,2014-02-21T21:00:00Z,27.9799,-97.0288,0.0,30.3,1111122 
TCOON,ioos:station:TCOON:148:1,2014-02-21T22:00:00Z,27.9799,-97.0288,0.0,30.2,1111122 
TCOON,ioos:station:TCOON:148:1,2014-02-21T23:00:00Z,27.9799,-97.0288,0.0,30.2,1111122 
TCOON,ioos:station:TCOON:148:1,2014-02-22T00:00:00Z,27.9799,-97.0288,0.0,30.2,1111122 
TCOON,ioos:station:TCOON:148:1,2014-02-22T01:00:00Z,27.9799,-97.0288,0.0,30.3,1111122 
TCOON,ioos:station:TCOON:148:1,2014-02-22T02:00:00Z,27.9799,-97.0288,0.0,30.3,1111122 
TCOON,ioos:station:TCOON:148:1,2014-02-22T03:00:00Z,27.9799,-97.0288,0.0,30.4,1111122 
TCOON,ioos:station:TCOON:148:1,2014-02-22T04:00:00Z,27.9799,-97.0288,0.0,30.5,1111122 
TCOON,ioos:station:TCOON:148:1,2014-02-22T05:00:00Z,27.9799,-97.0288,0.0,30.4,1111122 
TCOON,ioos:station:TCOON:148:1,2014-02-22T06:00:00Z,27.9799,-97.0288,0.0,30.3,1111122 
TCOON,ioos:station:TCOON:148:1,2014-02-22T07:00:00Z,27.9799,-97.0288,0.0,30.3,1111122 
TCOON,ioos:station:TCOON:148:1,2014-02-22T08:00:00Z,27.9799,-97.0288,0.0,30.3,1111122 
TCOON,ioos:station:TCOON:148:1,2014-02-22T09:00:00Z,27.9799,-97.0288,0.0,30.3,1111122 
TCOON,ioos:station:TCOON:148:1,2014-02-22T10:00:00Z,27.9799,-97.0288,0.0,30.3,1111122 
TCOON,ioos:station:TCOON:148:1,2014-02-22T11:00:00Z,27.9799,-97.0288,0.0,30.2,1111122 
TCOON,ioos:station:TCOON:148:1,2014-02-22T12:00:00Z,27.9799,-97.0288,0.0,30.1,1111122 
TCOON,ioos:station:TCOON:148:1,2014-02-22T13:00:00Z,27.9799,-97.0288,0.0,30.1,1111122 
TCOON,ioos:station:TCOON:148:1,2014-02-22T14:00:00Z,27.9799,-97.0288,0.0,30.0,1111122 
TCOON,ioos:station:TCOON:148:1,2014-02-22T15:00:00Z,27.9799,-97.0288,0.0,30.0,1111122 
TCOON,ioos:station:TCOON:148:1,2014-02-22T16:00:00Z,27.9799,-97.0288,0.0,30.1,1111122 
TCOON,ioos:station:TCOON:148:1,2014-02-22T17:00:00Z,27.9799,-97.0288,0.0,30.1,1111122 
TCOON,ioos:station:TCOON:148:1,2014-02-22T18:00:00Z,27.9799,-97.0288,0.0,30.2,1111122 
TCOON,ioos:station:TCOON:148:1,2014-02-22T19:00:00Z,27.9799,-97.0288,0.0,30.3,1111122 
TCOON,ioos:station:TCOON:148:1,2014-02-22T20:00:00Z,27.9799,-97.0288,0.0,30.4,1111122 
TCOON,ioos:station:TCOON:148:1,2014-02-22T21:00:00Z,27.9799,-97.0288,0.0,30.4,1111122 
TCOON,ioos:station:TCOON:148:1,2014-02-22T22:00:00Z,27.9799,-97.0288,0.0,30.4,1111122 
TCOON,ioos:station:TCOON:148:1,2014-02-22T23:00:00Z,27.9799,-97.0288,0.0,30.4,1111122 
TCOON,ioos:station:TCOON:148:1,2014-02-23T00:00:00Z,27.9799,-97.0288,0.0,30.3,1111122 